Weather History for Bennington, VT

Change the Weather History Date:

Monday, October 29, 2012

  Actual Average Record
Temperature  
Mean Temperature 58 °F 44 °F  
Max Temperature 64 °F 54 °F 68 °F (2014)
Min Temperature 51 °F 33 °F 19 °F (2013)
Degree Days  
Heating Degree Days 7 22  
Month to date heating degree days 374 499  
Since 1 July heating degree days 589 777  
Cooling Degree Days 0 0  
Month to date cooling degree days 2 0  
Year to date cooling degree days 476 311  
Growing Degree Days 8 (Base 50)    
Moisture  
Dew Point 49 °F    
Average Humidity 76    
Maximum Humidity 84    
Minimum Humidity 67    
Precipitation  
Precipitation 0.51 in 0.10 in 1.79 in (2003)
Month to date precipitation 3.96 3.50  
Year to date precipitation 28.57 34.61  
Sea Level Pressure  
Sea Level Pressure 29.43 in    
Wind  
Wind Speed 10 mph (NE)    
Max Wind Speed 28 mph    
Max Gust Speed 41 mph    
Visibility 9 miles    
Events Rain    
T = Trace of Precipitation, MM = Missing Value Source: NWS Daily Summary

Daily Weather History Graph

Daily Weather History Graph

Search for Another Location

Airport:

Trip Planner

Search our weather history database for the weather conditions in past years. The results will help you decide how hot, cold, wet, or windy it might be!

Date:

Astronomy

Oct. 29, 2012 Rise Set
Actual Time 7:24 AM EDT 5:48 PM EDT
Civil Twilight 6:54 AM EDT 6:17 PM EDT
Nautical Twilight 6:21 AM EDT 6:51 PM EDT
Astronomical Twilight 5:48 AM EDT 7:24 PM EDT
Moon 5:37 PM EDT (10/29) 7:12 AM EDT (10/29)
Length of Visible Light 11h 23m
Length of Day
10h 24m
Full, 100% of the Moon is Illuminated
Oct 29
Full
Oct 29
Full
Nov 6
Last Quarter
Nov 13
New
Nov 20
First Quarter

Hourly Weather History & Observations

Time (EDT) Temp. Dew Point Humidity Pressure Visibility Wind Dir Wind Speed Gust Speed Precip Events Conditions
12:54 AM 52.0 °F 43.0 °F 71% 29.78 in 10.0 mi Variable 6.9 mph - N/A   Overcast
1:54 AM 51.1 °F 44.1 °F 77% 29.77 in 10.0 mi NNE 5.8 mph - N/A   Overcast
2:54 AM 52.0 °F 44.1 °F 74% 29.75 in 10.0 mi North 4.6 mph - N/A   Overcast
3:54 AM 52.0 °F 44.1 °F 74% 29.71 in 10.0 mi North 9.2 mph - N/A   Overcast
4:54 AM 51.1 °F 45.0 °F 80% 29.70 in 10.0 mi North 6.9 mph - N/A   Overcast
5:54 AM 52.0 °F 45.0 °F 77% 29.68 in 10.0 mi North 6.9 mph - N/A   Overcast
6:54 AM 52.0 °F 45.0 °F 77% 29.65 in 10.0 mi North 8.1 mph - N/A   Overcast
7:13 AM 51.8 °F 44.6 °F 76% 29.64 in 10.0 mi North 5.8 mph - N/A   Overcast
7:54 AM 53.1 °F 45.0 °F 74% 29.64 in 10.0 mi Variable 5.8 mph - N/A   Overcast
8:54 AM 54.0 °F 46.0 °F 75% 29.62 in 10.0 mi North 6.9 mph - N/A   Overcast
9:46 AM 53.6 °F 46.4 °F 77% 29.59 in 10.0 mi North 10.4 mph 17.3 mph N/A   Overcast
9:54 AM 54.0 °F 46.9 °F 77% 29.59 in 9.0 mi NNE 11.5 mph 20.7 mph N/A   Overcast
10:54 AM 55.0 °F 46.9 °F 74% 29.54 in 10.0 mi North 10.4 mph 21.9 mph N/A   Overcast
11:54 AM 57.9 °F 46.9 °F 67% 29.50 in 10.0 mi NE 10.4 mph 26.5 mph N/A   Overcast
12:28 PM 59.0 °F 48.2 °F 67% 29.46 in 10.0 mi NNE 8.1 mph 29.9 mph N/A   Overcast
12:54 PM 59.0 °F 48.0 °F 67% 29.44 in 10.0 mi NE 12.7 mph 26.5 mph N/A   Overcast
1:20 PM 59.0 °F 48.2 °F 67% 29.40 in 10.0 mi NE 12.7 mph 28.8 mph N/A   Overcast
1:52 PM 59.0 °F 48.2 °F 67% 29.37 in 10.0 mi NE 10.4 mph 33.4 mph N/A   Overcast
1:54 PM 59.0 °F 48.9 °F 69% 29.37 in 10.0 mi NNE 13.8 mph 33.4 mph N/A   Overcast
2:31 PM 60.8 °F 48.2 °F 63% 29.33 in 10.0 mi NE 18.4 mph 34.5 mph N/A   Overcast
2:54 PM 60.1 °F 50.0 °F 69% 29.31 in 10.0 mi NNE 11.5 mph 27.6 mph N/A   Overcast
3:54 PM 59.0 °F 52.0 °F 78% 29.24 in 4.0 mi NE 10.4 mph 28.8 mph 0.05 in Rain Rain
4:54 PM 59.0 °F 52.0 °F 78% 29.18 in 6.0 mi NNE 15.0 mph 39.1 mph 0.06 in Rain Light Rain
5:54 PM 59.0 °F 52.0 °F 78% 29.14 in 4.0 mi NE 11.5 mph 27.6 mph 0.05 in Rain Light Rain
6:54 PM 60.1 °F 53.1 °F 78% 29.14 in 5.0 mi East 11.5 mph 21.9 mph 0.04 in Rain Light Rain
7:54 PM 62.1 °F 55.0 °F 78% 29.13 in 6.0 mi East 13.8 mph 28.8 mph 0.04 in Rain Light Rain
8:54 PM 62.1 °F 55.9 °F 80% 29.11 in 9.0 mi East 12.7 mph 25.3 mph 0.02 in Rain Light Rain
9:12 PM 64.4 °F 55.4 °F 73% 29.12 in 9.0 mi East 9.2 mph 21.9 mph 0.00 in Rain Light Rain
9:54 PM 63.0 °F 55.9 °F 78% 29.13 in 9.0 mi East 8.1 mph 18.4 mph 0.15 in Rain Light Rain
10:54 PM 61.0 °F 55.9 °F 83% 29.14 in 3.0 mi East 11.5 mph 16.1 mph 0.08 in Rain Light Rain
11:54 PM 62.1 °F 55.0 °F 78% 29.16 in 10.0 mi East 9.2 mph 21.9 mph 0.01 in Rain Light Rain